Regional Weather Roundup
Issued by NWS Little Rock, AR

Home | Current Version | Previous Version | Text Only | Print | Product List | Glossary Off
Versions: 1 2 3 4 5 6 7 8 9 10 11 12 13 14 15 16 17 18 19 20 21 22 23 24 25 26 27 28 29 30 31 32 33 34 35 36 37 38 39 40 41 42 43 44 45 46 47 48 49 50

000
ASUS44 KLZK 152305
RWRLZK

WEATHER ROUNDUP FOR ARKANSAS
NATIONAL WEATHER SERVICE LITTLE ROCK AR
600 PM CDT MON SEP 15 2014

NOTE: "FAIR" INDICATES FEW OR NO CLOUDS BELOW 12,000 FEET WITH NO
SIGNIFICANT WEATHER AND/OR OBSTRUCTIONS TO VISIBILITY.

ARZ001-003-010-029-160000-
NORTHWEST ARKANSAS

CITY           SKY/WX    TMP DP  RH WIND       PRES   REMARKS
FAYETTEVILLE   SUNNY     78  69  73 S7        30.13R
FORT SMITH     CLOUDY    78  69  73 S3        30.11R
HARRISON       MOSUNNY   79  66  64 W7        30.12F
BENTONVILLE    MOSUNNY   79  66  65 W7        30.14S
ROGERS         MOSUNNY   79  66  64 SW7       30.13S
SILOAM SPGS    SUNNY     81  64  57 W8        30.14R
HIGHFILL       SUNNY     78  67  68 W7        30.13R
SPRINGDALE     MOSUNNY   79  66  65 SW8       30.15R
$$

ARZ004-005-016-160000-
NORTH CENTRAL ARKANSAS

CITY           SKY/WX    TMP DP  RH WIND       PRES   REMARKS
BATESVILLE     CLOUDY    75  68  78 SW6       30.10S
FLIPPIN        MOSUNNY   79  66  65 SW5       30.09F
MTN HOME       MOSUNNY   78  69  73 SW6       30.09F
$$

ARZ040-041-160000-
WEST CENTRAL ARKANSAS

CITY           SKY/WX    TMP DP  RH WIND       PRES   REMARKS
MENA           CLOUDY    79  70  73 CALM      30.14S
MOUNT IDA      CLOUDY    75  67  76 CALM      30.11F
$$

ARZ009-017-025-026-028-160000-
NORTHEAST ARKANSAS

CITY           SKY/WX    TMP DP  RH WIND       PRES   REMARKS
CORNING          N/A     73  68  83 SW6       30.08F
JONESBORO      CLOUDY    77  66  68 SW5       30.09S
NEWPORT        CLOUDY    77  65  66 S5        30.10S
WALNUT RIDGE   PTSUNNY   72  64  78 S7        30.08S
BLYTHEVILLE    CLOUDY    74  66  76 S5        30.09F
$$

ARZ022-023-033-042-044-160000-
CENTRAL ARKANSAS

CITY           SKY/WX    TMP DP  RH WIND       PRES   REMARKS
LITTLE ROCK    CLOUDY    77  65  66 W5        30.11S
N LITTLE ROCK  CLOUDY    73  68  83 NW5       30.11S
JACKSONVILLE   CLOUDY    74  66  74 NW2       30.12R
SEARCY         CLOUDY    76  66  71 SW5       30.12S
HOT SPRINGS    CLOUDY    76  66  71 NW3       30.12F
RUSSELLVILLE   PTSUNNY   78  67  68 VRB3      30.11F
CLINTON        FAIR      75  70  83 SW5       30.12S
$$

ARZ036-160000-
EAST ARKANSAS

CITY           SKY/WX    TMP DP  RH WIND       PRES   REMARKS
WEST MEMPHIS   LGT RAIN  77  67  71 SW5       30.08S
$$

ARZ050-053-066-070-073-160000-
SOUTHWEST ARKANSAS

CITY           SKY/WX    TMP DP  RH WIND       PRES   REMARKS
ARKADELPHIA    FAIR      76  69  79 CALM      30.12S
CAMDEN         CLOUDY    77  68  73 CALM      30.11S
TEXARKANA      PTSUNNY   80  70  71 NE8       30.11R
EL DORADO      PTSUNNY   79  69  71 N6        30.10S
DE QUEEN       PTSUNNY   78  68  71 CALM      30.10S
$$

ARZ056-057-069-160000-
SOUTHEAST ARKANSAS

CITY           SKY/WX    TMP DP  RH WIND       PRES   REMARKS
PINE BLUFF     CLOUDY    78  65  63 NW6       30.11R
STUTTGART      CLOUDY    75  66  73 NW5       30.11S
MONTICELLO     CLOUDY    80  68  66 CALM      30.10S

$$




USA.gov is the U.S. government's official web portal to all federal, state and local government web resources and services.